This is the latest recevied weather packets stored in our database for station/object IA5FYI-13. If no packets are shown the sender has not sent any weather packets the latest 1 day(s).
| Time | Temp. | Humidity | Pressure | Rain* | Wind** | Luminosity | Snow |
|---|---|---|---|---|---|---|---|
| 1778060110 | 18.89° C | 90% | 1009.1 hPa | 0 mm | - | - | - |
| 1778059824 | 18.89° C | 89% | 1009.5 hPa | 0 mm | - | - | - |
| 1778059213 | 18.89° C | 89% | 1009.1 hPa | 0 mm | - | - | - |
| 1778058913 | 18.89° C | 89% | 1009.1 hPa | 0 mm | - | - | - |
| 1778058613 | 18.89° C | 89% | 1009.1 hPa | 0 mm | - | - | - |
| 1778057709 | 18.89° C | 89% | 1008.5 hPa | 12.19 mm | - | - | - |
| 1778057413 | 17.78° C | 89% | 1008.5 hPa | 12.19 mm | - | - | - |
| 1778057112 | 17.78° C | 90% | 1009.1 hPa | 12.19 mm | - | - | - |
| 1778056813 | 17.78° C | 89% | 1008.8 hPa | 7.11 mm | - | - | - |
| 1778056509 | 17.78° C | 90% | 1008.8 hPa | 2.54 mm | - | - | - |
| 1778056224 | 17.78° C | 89% | 1008.5 hPa | 2.03 mm | - | - | - |
| 1778055910 | 18.89° C | 89% | 1008.5 hPa | 2.03 mm | - | - | - |
| 1778055613 | 18.89° C | 89% | 1008.5 hPa | 2.03 mm | - | - | - |
| 1778055014 | 17.78° C | 89% | 1008.5 hPa | 1.78 mm | - | - | - |
| 1778053814 | 17.78° C | 90% | 1008.5 hPa | 23.88 mm | - | - | - |
| 1778053214 | 17.78° C | 90% | 1008.5 hPa | 19.3 mm | - | - | - |
| 1778052910 | 17.78° C | 90% | 1008.5 hPa | 19.05 mm | - | - | - |
| 1778052310 | 17.78° C | 90% | 1008.5 hPa | 7.11 mm | - | - | - |
| 1778051414 | 17.78° C | 90% | 1008.1 hPa | 3.05 mm | - | - | - |
| 1778051111 | 17.78° C | 90% | 1008.1 hPa | 1.27 mm | - | - | - |
| 1778050835 | 17.78° C | 90% | 1008.1 hPa | 4.32 mm | - | - | - |
| 1778050214 | 17.78° C | 89% | 1008.5 hPa | 1.78 mm | - | - | - |
| 1778049616 | 17.22° C | 89% | 1008.5 hPa | 0 mm | - | - | - |
| 1778049024 | 17.22° C | 88% | 1008.8 hPa | 0 mm | - | - | - |
| 1778048709 | 17.22° C | 88% | 1008.5 hPa | 0 mm | - | - | - |
* Rain latest hour (hover to see other rain measurements)
** Current wind speed in m/s (hover to see current wind gust speed)